Location: Recife
(8.0585°S, 34.8848°W)
Time: 11:02:17
(UTC-03:00)

Vanguard 2 - Pass Details

Date: 16 April 2026
Orbit: 554 x 2894 km, 32.9° (Epoch: 7 May)

Event Time Altitude Azimuth Distance (km) Brightness Sun altitude
Rises 06:13:59 0° 239° (WSW) 5,716 11.4 11.8°
Reaches altitude 10° 06:18:22 10° 240° (WSW) 4,343 10.8 12.9°
Maximum altitude 06:29:13 73° 323° (NW) 1,330 8.9 15.5°
Drops below altitude 10° 06:35:33 10° 47° (NE) 2,620 11.5 17.0°
Sets 06:37:37 0° 49° (NE) 3,357 12.0 17.5°
